Location: Devore Heights
(34.2372°N, 117.4156°W)
Time: 05:01:39
(UTC+00:00)

S-56A Canister/Altair - Pass Details

Date: 14 September 2024
Orbit: 636 x 2487 km, 38.9° (Epoch: 05 October)

Event Time Altitude Azimuth Distance (km) Brightness Sun altitude
Rises 10:35:44 0° 281° (W) 5,265 - -35.2°
Reaches altitude 10° 10:40:09 10° 266° (W) 4,546 - -34.4°
Maximum altitude 10:48:45 21° 224° (SW) 4,089 - -32.9°
Exits shadow 10:58:07 11° 184° (S) 5,080 11.4 -31.3°
Drops below altitude 10° 10:58:26 10° 183° (S) 5,131 11.4 -31.2°
Sets 11:04:01 0° 169° (S) 6,127 12.0 -30.2°
